{"data":{"norad_id":68682,"epoch":"2026-09-19T21:14:06.588672Z","epoch_age_seconds":96902,"freshness":"FRESH","line1":"1 68682U 26077W   26262.88479848  .00037181  00000+0  11437-2 0  9993","line2":"2 68682  97.2863 132.8657 0002580 108.3486 251.8037 15.33572642 24925","mean_motion":15.33572642,"eccentricity":0.000258,"inclination_deg":97.2863,"raan_deg":132.8657,"arg_perigee_deg":108.3486,"mean_anomaly_deg":251.8037,"bstar":0.0011437,"rev_number":2492,"period_min":93.89838867509,"perigee_km":463.39785652071,"apogee_km":466.92899954157,"semimajor_km":6843.3004280311,"source":"CELESTRAK","updated_at":"2026-09-20T09:00:43.954371Z"}}